Miscellaneous Local Product
Issued by NWS North Platte, NE

Home | Current Version | Previous Version | Text Only | Print | Product List | Glossary On
Versions: 1 2 3 4 5 6 7 8 9 10 11 12 13 14 15 16 17 18 19 20 21 22 23 24 25 26 27 28 29 30 31 32 33 34 35 36 37 38 39 40 41 42 43 44 45 46 47 48 49 50
000
AXUS43 KLBF 262310
MISLBF


WESTERN AND NORTH CENTRAL NEBRASKA HOURLY WEATHER ROUNDUP
NATIONAL WEATHER SERVICE NORTH PLATTE NE
600 PM CDT MON JUN 26 2017

NOTE: "FAIR" INDICATES FEW OR NO CLOUDS BELOW 12,000 FEET WITH NO
SIGNIFICANT WEATHER AND/OR OBSTRUCTIONS TO VISIBILITY.

NOTE: STATIONS NOT REPORTING VARIABLES SUCH AS SKY/WEATHER OR
PRESSURE ARE PROVIDED BY RAWS AND APRS NETWORKS AND ARE NOT UNDER
NATIONAL WEATHER SERVICE QUALITY CONTROL.

...OBSERVATIONS IN AND NEAR THE EASTERN PANHANDLE OF NEBRASKA...

CITY           SKY/WX    TMP DP  RH WIND       PRES   REMARKS
PINE RIDGE     SUNNY     79  40  24 SE12      30.11F
GORDON         FAIR      77  38  24 E9        30.13F
CHADRON        SUNNY     82  36  19 SE13      30.08F
ALLIANCE       SUNNY     81  37  20 E10       30.12F
SIDNEY         SUNNY     83  49  30 E16G23    30.14F
$$

...OBSERVATIONS IN NORTHERN NEBRASKA AND FAR SOUTHERN SOUTH DAKOTA...

CITY           SKY/WX    TMP DP  RH WIND       PRES   REMARKS
WINNER         FAIR      78  37  22 NE6       30.14F
VALENTINE      SUNNY     77  35  21 MISG      30.14F
THEDFORD       SUNNY     77  41  27 NE6       30.16F
AINSWORTH      SUNNY     74  41  30 E7        30.15F
O`NEILL        SUNNY     74  41  30 E8        30.15F
ORD            SUNNY     77  41  27 VRB7      30.12F
BROKEN BOW     SUNNY     77  43  29 NE9       30.14S
VALENTINE NWR    N/A     75  40  28 NE6G16      N/A
HALSEY           N/A     77  39  25 E6G14       N/A
BUTTE            N/A     71  37  29 E10         N/A
CHAMBERS         N/A     78  45  30 E6          N/A
EWING            N/A     73  44  36 E5G12       N/A
$$

...OBSERVATIONS IN SOUTHWEST NEBRASKA AND FAR NORTHEAST COLORADO...

CITY           SKY/WX    TMP DP  RH WIND       PRES   REMARKS
WRAY           FAIR      81  57  44 E13       30.11F
IMPERIAL       PTSUNNY   80  54  40 E13G21    30.11S
OGALLALA       SUNNY     82  39  21 E13       30.13S
NORTH PLATTE   SUNNY     81  44  27 E12       30.12F
MCCOOK         MOSUNNY   80  60  50 E17       30.10F
LEXINGTON      SUNNY     79  49  34 E13G18    30.12S
STAPLETON        N/A     75  42  31 E3G13       N/A
GOTHENBURG       N/A     77  45  31 E9          N/A
CALLAWAY         N/A     75  50  41 E12         N/A
$$

...OBSERVATIONS IN CENTRAL LINCOLN COUNTY AREA...

CITY           SKY/WX    TMP DP  RH WIND       PRES   REMARKS
N.P. AIRPORT   SUNNY     81  44  27 E12       30.12F
N.P. DOWNTOWN    N/A     79  45  29 E8          N/A
N.P. SOUTHEAST   N/A     80  45  28 E3          N/A
N.P. HILLCREST   N/A     77  43  29 E12G20      N/A
$$

...SOME OBSERVATIONS FROM AROUND THE REGION...

CITY           SKY/WX    TMP DP  RH WIND       PRES   REMARKS
DENVER         MOSUNNY   87  38  17 NE10      30.13F
LIMON          SUNNY     84  46  26 SE17G23   30.14F
ASPEN          CLOUDY    83  20   9 VRB5      30.25F
LARAMIE        MOSUNNY   81  23  11 N8        30.23F
CASPER         SUNNY     86  24  10 S10       30.07F
CHEYENNE       SUNNY     81  40  23 SE13G20   30.19F
SCOTTSBLUFF    SUNNY     83  41  22 SE8       30.10F
GRAND ISLAND   SUNNY     76  52  43 NE13G22   30.12S
OMAHA          MOSUNNY   76  50  40 N10       30.10F
SIOUX FALLS    MOSUNNY   71  46  40 NE5       30.15F
PIERRE         SUNNY     73  41  31 SE10      30.11F
RAPID CITY     SUNNY     81  39  22 S14G23    30.08F
BISMARCK       SUNNY     77  43  29 SE7       30.09F
KANSAS CITY    CLOUDY    70  56  61 CALM      30.13R
HILL CITY      CLOUDY    81  62  52 E9        30.07F
WICHITA        MOSUNNY   88  58  36 S6        30.01F
DODGE CITY     SUNNY     85  60  42 S9        30.06F
OKLAHOMA CITY  MOSUNNY   85  56  37 S5        30.03F
DALLAS         CLOUDY    86  70  58 SE10      30.00F HX  90
AMARILLO       MOSUNNY   84  57  39 S9G20     30.12F
$$




USA.gov is the U.S. government's official web portal to all federal, state and local government web resources and services.